{"data":{"norad_id":64890,"intl_designator":"2025-155Q","name":"GEOSCAN 2 (RS92S2)","alt_names":[],"object_type":"PAYLOAD","status":"ACTIVE","operator":null,"country":"CIS","launch_date":"2025-07-25","launch_site_code":"VOSTO","launch_vehicle":null,"mission":null,"orbit_class":"UNKNOWN","rcs_meters":null,"size_class":null,"mass_kg":null,"dimensions":null,"purposes":["comms"],"wikipedia_slug":null,"has_3d_model":false,"image_url":null,"decayed_at":null,"tle_current":{"epoch":"2026-05-25T04:01:43.127328Z","epoch_age_seconds":64053,"freshness":"FRESH","line1":"1 64890U 25155Q   26145.16786027  .00010177  00000+0  34771-3 0  9990","line2":"2 64890  97.4537 113.9131 0005118 234.7723 125.3039 15.30479400 77264","mean_motion":15.304794,"eccentricity":0.0005118,"inclination_deg":97.4537,"raan_deg":113.9131,"arg_perigee_deg":234.7723,"mean_anomaly_deg":125.3039,"bstar":0.00034771,"rev_number":7726,"period_min":94.088166100112,"perigee_km":470.87383960648,"apogee_km":477.88807698859,"semimajor_km":6852.5179582975,"source":"CELESTRAK","updated_at":"2026-05-25T13:38:23.328382Z"}}}